UAL2713 KEWR-KEGE

Flight info

Callsign UAL2713
Flight time 4h 4m
Altitude 30000
Route NEWEL J60 DJB CPONE JOT LNK/N0439F320 WIZZR VAAIL1
Aircraft B739/M-SDE2E3FGHIRWXY/LB1

Departure

Time 2026-05-04 18:36
Airport Newark Liberty International Airport (KEWR)

Arrival

Time 2026-05-04 22:40
Airport Eagle County Regional Airport (KEGE)
Time Latitude Longitude Altitude Speed Heading
2026-05-04 18:06 40.69816 -74.17519 20 ft 0 kts 167°
2026-05-04 18:25 40.69832 -74.17525 20 ft 4 kts 156°
2026-05-04 18:25 40.69852 -74.17544 23 ft 4 kts 118°
2026-05-04 18:25 40.69856 -74.17574 24 ft 4 kts 72°
2026-05-04 18:26 40.69844 -74.17605 21 ft 4 kts 53°
2026-05-04 18:26 40.69827 -74.17632 23 ft 4 kts 44°
2026-05-04 18:26 40.69813 -74.17648 20 ft 0 kts 40°
2026-05-04 18:30 40.69815 -74.17646 22 ft 1 kts 40°
2026-05-04 18:31 40.69826 -74.17634 23 ft 4 kts 40°
2026-05-04 18:31 40.69855 -74.17602 21 ft 8 kts 40°
2026-05-04 18:31 40.69904 -74.17547 22 ft 10 kts 41°
2026-05-04 18:31 40.69958 -74.17483 24 ft 11 kts 43°
2026-05-04 18:32 40.70019 -74.17406 24 ft 13 kts 43°
2026-05-04 18:32 40.70097 -74.17349 28 ft 13 kts 44°
2026-05-04 18:32 40.70116 -74.17239 24 ft 13 kts 95°
2026-05-04 18:32 40.70109 -74.17126 22 ft 12 kts 95°
2026-05-04 18:33 40.70101 -74.17016 21 ft 12 kts 95°
2026-05-04 18:33 40.70095 -74.16909 20 ft 12 kts 95°
2026-05-04 18:33 40.70088 -74.16805 19 ft 11 kts 95°
2026-05-04 18:33 40.70081 -74.16704 16 ft 11 kts 96°
2026-05-04 18:34 40.70074 -74.16605 16 ft 11 kts 96°
2026-05-04 18:34 40.70067 -74.16509 14 ft 10 kts 94°
2026-05-04 18:34 40.70062 -74.16416 14 ft 10 kts 94°
2026-05-04 18:34 40.70029 -74.16366 15 ft 5 kts 187°
2026-05-04 18:35 40.69987 -74.16391 13 ft 18 kts 204°
2026-05-04 18:35 40.69658 -74.16602 19 ft 86 kts 206°
2026-05-04 18:35 40.68941 -74.17054 18 ft 141 kts 205°
2026-05-04 18:35 40.67946 -74.17676 153 ft 172 kts 209°
2026-05-04 18:36 40.66869 -74.18339 903 ft 167 kts 203°
2026-05-04 18:36 40.65747 -74.18746 1597 ft 171 kts 197°
2026-05-04 18:36 40.64554 -74.19283 1900 ft 188 kts 212°
2026-05-04 18:36 40.63445 -74.20168 2545 ft 183 kts 213°
2026-05-04 18:37 40.62333 -74.21018 3083 ft 190 kts 213°
2026-05-04 18:37 40.61130 -74.21918 3340 ft 207 kts 214°
2026-05-04 18:37 40.60097 -74.23245 3760 ft 214 kts 241°
2026-05-04 18:37 40.59661 -74.25204 3962 ft 237 kts 266°
2026-05-04 18:38 40.59957 -74.27325 4720 ft 237 kts 289°
2026-05-04 18:38 40.60450 -74.28605 5246 ft 237 kts 295°
2026-05-04 18:38 40.61248 -74.30532 5826 ft 244 kts 295°
2026-05-04 18:38 40.62327 -74.33139 6821 ft 240 kts 297°
2026-05-04 18:39 40.62873 -74.34404 7436 ft 233 kts 297°
2026-05-04 18:39 40.63991 -74.36951 7796 ft 258 kts 298°
2026-05-04 18:39 40.64570 -74.38402 7927 ft 270 kts 293°
2026-05-04 18:39 40.65366 -74.40677 8528 ft 272 kts 295°
2026-05-04 18:40 40.66164 -74.42848 9649 ft 255 kts 294°
2026-05-04 18:40 40.66908 -74.44919 10337 ft 255 kts 294°
2026-05-04 18:40 40.67730 -74.47099 10504 ft 275 kts 295°
2026-05-04 18:40 40.68613 -74.49432 10681 ft 292 kts 295°
2026-05-04 18:41 40.69523 -74.51882 11091 ft 301 kts 294°
2026-05-04 18:41 40.70434 -74.54377 11678 ft 303 kts 294°
2026-05-04 18:41 40.71339 -74.56890 12329 ft 304 kts 294°
2026-05-04 18:41 40.72242 -74.59427 12927 ft 307 kts 294°
2026-05-04 18:42 40.73149 -74.61999 13514 ft 310 kts 293°
2026-05-04 18:42 40.74060 -74.64591 14080 ft 312 kts 293°
2026-05-04 18:42 40.74974 -74.67204 14620 ft 315 kts 293°
2026-05-04 18:42 40.75890 -74.69831 15165 ft 316 kts 294°
2026-05-04 18:43 40.76811 -74.72476 15692 ft 319 kts 294°
2026-05-04 18:43 40.77726 -74.75105 16222 ft 320 kts 294°
2026-05-04 18:43 40.78659 -74.77793 16738 ft 323 kts 294°
2026-05-04 18:43 40.79598 -74.80501 17257 ft 325 kts 294°
2026-05-04 18:44 40.80545 -74.83236 17780 ft 327 kts 294°
2026-05-04 18:44 40.81174 -74.85053 18129 ft 329 kts 294°
2026-05-04 18:44 40.82450 -74.88742 18727 ft 332 kts 294°
2026-05-04 18:44 40.83413 -74.91530 19165 ft 334 kts 294°
2026-05-04 18:45 40.84363 -74.94282 19636 ft 335 kts 294°
2026-05-04 18:45 40.85332 -74.97092 20076 ft 337 kts 294°
2026-05-04 18:45 40.86307 -74.99923 20536 ft 339 kts 294°
2026-05-04 18:45 40.87284 -75.02764 21004 ft 341 kts 294°
2026-05-04 18:46 40.88267 -75.05624 21471 ft 342 kts 295°
2026-05-04 18:46 40.89254 -75.08497 21938 ft 344 kts 295°
2026-05-04 18:46 40.90246 -75.11389 22364 ft 346 kts 295°
2026-05-04 18:46 40.91146 -75.14355 22760 ft 349 kts 285°
2026-05-04 18:47 40.91487 -75.17540 23217 ft 352 kts 274°
2026-05-04 18:47 40.91343 -75.20803 23585 ft 360 kts 262°
2026-05-04 18:47 40.90678 -75.23974 23929 ft 364 kts 257°
2026-05-04 18:47 40.89898 -75.27161 24265 ft 367 kts 256°
2026-05-04 18:48 40.89103 -75.30385 24592 ft 369 kts 256°
2026-05-04 18:48 40.88321 -75.33628 24943 ft 371 kts 257°
2026-05-04 18:48 40.87551 -75.36880 25292 ft 372 kts 257°
2026-05-04 18:48 40.86781 -75.40151 25635 ft 374 kts 257°
2026-05-04 18:49 40.86008 -75.43435 25959 ft 376 kts 257°
2026-05-04 18:49 40.85227 -75.46739 26293 ft 377 kts 257°
2026-05-04 18:49 40.84442 -75.50054 26593 ft 379 kts 257°
2026-05-04 18:49 40.83652 -75.53386 26883 ft 381 kts 257°
2026-05-04 18:50 40.82857 -75.56734 27241 ft 382 kts 257°
2026-05-04 18:50 40.82060 -75.60088 27524 ft 384 kts 257°
2026-05-04 18:50 40.81257 -75.63462 27782 ft 387 kts 257°
2026-05-04 18:50 40.80448 -75.66854 28081 ft 388 kts 257°
2026-05-04 18:51 40.79636 -75.70257 28360 ft 390 kts 257°
2026-05-04 18:51 40.78819 -75.73673 28650 ft 391 kts 257°
2026-05-04 18:51 40.78006 -75.77067 28935 ft 393 kts 257°
2026-05-04 18:51 40.77180 -75.80508 29221 ft 394 kts 257°
2026-05-04 18:52 40.76351 -75.83961 29503 ft 396 kts 257°
2026-05-04 18:52 40.75516 -75.87435 29771 ft 398 kts 257°
2026-05-04 18:52 40.74677 -75.90919 29927 ft 399 kts 257°
2026-05-04 18:53 40.72979 -75.97956 29927 ft 406 kts 257°
2026-05-04 18:53 40.71246 -76.05113 29932 ft 411 kts 256°
2026-05-04 18:54 40.69500 -76.12301 29920 ft 412 kts 256°
2026-05-04 18:54 40.67778 -76.19479 29934 ft 409 kts 260°
2026-05-04 18:55 40.67233 -76.26838 29931 ft 401 kts 275°
2026-05-04 18:55 40.68612 -76.37592 29932 ft 398 kts 283°
2026-05-04 18:56 40.69718 -76.44738 29934 ft 398 kts 283°
2026-05-04 18:56 40.70791 -76.51847 29932 ft 398 kts 283°
2026-05-04 18:57 40.71854 -76.59005 29924 ft 398 kts 282°
2026-05-04 18:57 40.72908 -76.66166 29902 ft 398 kts 283°
2026-05-04 18:58 40.73957 -76.73335 29889 ft 397 kts 282°
2026-05-04 18:58 40.75000 -76.80488 29891 ft 397 kts 282°
2026-05-04 18:59 40.76039 -76.87646 29890 ft 397 kts 282°
2026-05-04 18:59 40.77074 -76.94804 29897 ft 397 kts 282°
2026-05-04 19:00 40.78097 -77.01922 29905 ft 397 kts 282°
2026-05-04 19:00 40.79123 -77.09087 29874 ft 397 kts 282°
2026-05-04 19:01 40.80144 -77.16249 29882 ft 397 kts 282°
2026-05-04 19:01 40.81161 -77.23419 29880 ft 397 kts 282°
2026-05-04 19:02 40.82085 -77.29963 29879 ft 396 kts 282°
2026-05-04 19:02 40.83086 -77.37074 29877 ft 396 kts 282°
2026-05-04 19:03 40.84090 -77.44250 29859 ft 397 kts 282°
2026-05-04 19:03 40.85086 -77.51413 29867 ft 396 kts 282°
2026-05-04 19:04 40.86074 -77.58544 29855 ft 396 kts 282°
2026-05-04 19:04 40.87063 -77.65710 29868 ft 396 kts 281°
2026-05-04 19:05 40.88046 -77.72876 29875 ft 396 kts 281°
2026-05-04 19:05 40.89024 -77.80048 29868 ft 397 kts 281°
2026-05-04 19:06 40.89995 -77.87188 29878 ft 398 kts 281°
2026-05-04 19:06 40.90971 -77.94397 29867 ft 399 kts 281°
2026-05-04 19:07 40.91936 -78.01641 29874 ft 398 kts 281°
2026-05-04 19:07 40.92833 -78.08873 29862 ft 399 kts 280°
2026-05-04 19:08 40.93720 -78.16125 29866 ft 399 kts 280°
2026-05-04 19:08 40.94604 -78.23340 29859 ft 400 kts 280°
2026-05-04 19:09 40.95492 -78.30601 29863 ft 400 kts 280°
2026-05-04 19:09 40.96378 -78.37873 29863 ft 400 kts 280°
2026-05-04 19:10 40.97258 -78.45140 29863 ft 400 kts 280°
2026-05-04 19:10 40.98134 -78.52427 29861 ft 400 kts 280°
2026-05-04 19:11 40.98999 -78.59659 29863 ft 400 kts 280°
2026-05-04 19:11 40.99867 -78.66956 29854 ft 400 kts 279°
2026-05-04 19:12 41.01158 -78.77884 29848 ft 400 kts 280°
2026-05-04 19:13 41.02014 -78.85177 29849 ft 400 kts 279°
2026-05-04 19:13 41.02865 -78.92470 29852 ft 401 kts 279°
2026-05-04 19:14 41.03712 -78.99767 29852 ft 401 kts 279°
2026-05-04 19:14 41.04550 -79.07030 29846 ft 401 kts 279°
2026-05-04 19:15 41.05389 -79.14345 29849 ft 402 kts 279°
2026-05-04 19:15 41.06224 -79.21666 29850 ft 402 kts 279°
2026-05-04 19:16 41.07057 -79.29011 29849 ft 403 kts 279°
2026-05-04 19:16 41.07886 -79.36365 29854 ft 403 kts 279°
2026-05-04 19:17 41.08712 -79.43732 29848 ft 404 kts 279°
2026-05-04 19:17 41.09528 -79.51059 29845 ft 404 kts 279°
2026-05-04 19:18 41.10344 -79.58433 29844 ft 404 kts 279°
2026-05-04 19:18 41.11158 -79.65823 29853 ft 404 kts 279°
2026-05-04 19:19 41.11966 -79.73207 29839 ft 404 kts 279°
2026-05-04 19:19 41.12765 -79.80561 29844 ft 404 kts 279°
2026-05-04 19:20 41.13565 -79.87959 29834 ft 405 kts 279°
2026-05-04 19:20 41.14359 -79.95353 29852 ft 404 kts 279°
2026-05-04 19:21 41.15148 -80.02742 29848 ft 405 kts 279°
2026-05-04 19:21 41.15934 -80.10142 29848 ft 405 kts 279°
2026-05-04 19:22 41.16714 -80.17542 29839 ft 405 kts 279°
2026-05-04 19:22 41.17484 -80.24908 29836 ft 405 kts 279°
2026-05-04 19:23 41.18256 -80.32327 29843 ft 405 kts 279°
2026-05-04 19:23 41.19026 -80.39760 29837 ft 406 kts 278°
2026-05-04 19:24 41.19785 -80.47157 29828 ft 406 kts 278°
2026-05-04 19:24 41.20544 -80.54598 29820 ft 407 kts 278°
2026-05-04 19:25 41.21299 -80.62049 29824 ft 407 kts 278°
2026-05-04 19:25 41.22048 -80.69491 29827 ft 406 kts 278°
2026-05-04 19:26 41.22793 -80.76935 29821 ft 407 kts 278°
2026-05-04 19:26 41.23532 -80.84378 29826 ft 406 kts 278°
2026-05-04 19:27 41.24145 -80.90579 29814 ft 407 kts 278°
2026-05-04 19:27 41.24876 -80.98028 29802 ft 406 kts 278°
2026-05-04 19:28 41.25602 -81.05476 29809 ft 406 kts 278°
2026-05-04 19:28 41.26319 -81.12883 29815 ft 406 kts 278°
2026-05-04 19:29 41.27036 -81.20337 29819 ft 406 kts 278°
2026-05-04 19:29 41.27747 -81.27786 29815 ft 406 kts 278°
2026-05-04 19:30 41.28454 -81.35239 29814 ft 406 kts 278°
2026-05-04 19:30 41.29152 -81.42653 29803 ft 406 kts 278°
2026-05-04 19:31 41.29850 -81.50108 29801 ft 406 kts 278°
2026-05-04 19:31 41.30543 -81.57568 29762 ft 406 kts 278°
2026-05-04 19:32 41.31229 -81.65028 29769 ft 406 kts 277°
2026-05-04 19:32 41.31910 -81.72483 29771 ft 406 kts 277°
2026-05-04 19:33 41.32586 -81.79937 29766 ft 406 kts 277°
2026-05-04 19:33 41.33259 -81.87404 29770 ft 406 kts 277°
2026-05-04 19:34 41.33922 -81.94817 29765 ft 406 kts 277°
2026-05-04 19:34 41.34584 -82.02279 29777 ft 406 kts 277°
2026-05-04 19:35 41.35243 -82.09746 29776 ft 406 kts 277°
2026-05-04 19:35 41.35892 -82.17210 29783 ft 406 kts 277°
2026-05-04 19:36 41.36375 -82.24697 29772 ft 406 kts 275°
2026-05-04 19:36 41.36783 -82.32141 29780 ft 406 kts 275°
2026-05-04 19:37 41.37199 -82.39636 29765 ft 406 kts 275°
2026-05-04 19:37 41.37624 -82.47131 29768 ft 405 kts 275°
2026-05-04 19:38 41.38049 -82.54616 29748 ft 405 kts 275°
2026-05-04 19:38 41.38471 -82.62101 29733 ft 404 kts 275°
2026-05-04 19:39 41.38888 -82.69565 29731 ft 404 kts 275°
2026-05-04 19:39 41.39297 -82.76980 29732 ft 404 kts 275°
2026-05-04 19:40 41.39702 -82.84433 29728 ft 403 kts 275°
2026-05-04 19:40 41.40104 -82.91898 29728 ft 403 kts 275°
2026-05-04 19:41 41.40500 -82.99346 29733 ft 403 kts 275°
2026-05-04 19:41 41.40891 -83.06802 29734 ft 403 kts 275°
2026-05-04 19:42 41.41275 -83.14211 29736 ft 403 kts 275°
2026-05-04 19:42 41.41657 -83.21670 29734 ft 403 kts 275°
2026-05-04 19:43 41.42034 -83.29124 29732 ft 403 kts 274°
2026-05-04 19:43 41.42406 -83.36577 29737 ft 403 kts 274°
2026-05-04 19:44 41.42773 -83.44039 29730 ft 403 kts 274°
2026-05-04 19:44 41.43134 -83.51458 29727 ft 404 kts 274°
2026-05-04 19:45 41.43491 -83.58918 29728 ft 403 kts 274°
2026-05-04 19:45 41.43844 -83.66384 29725 ft 403 kts 274°
2026-05-04 19:46 41.44192 -83.73847 29714 ft 403 kts 274°
2026-05-04 19:46 41.44535 -83.81301 29722 ft 403 kts 274°
2026-05-04 19:47 41.44874 -83.88771 29720 ft 403 kts 274°
2026-05-04 19:47 41.45207 -83.96238 29715 ft 403 kts 274°
2026-05-04 19:48 41.45534 -84.03652 29707 ft 403 kts 274°
2026-05-04 19:48 41.45858 -84.11122 29703 ft 404 kts 274°
2026-05-04 19:49 41.46178 -84.18601 29702 ft 404 kts 274°
2026-05-04 19:49 41.46492 -84.26072 29705 ft 404 kts 274°
2026-05-04 19:50 41.46801 -84.33541 29722 ft 403 kts 274°
2026-05-04 19:50 41.47106 -84.41008 29714 ft 403 kts 274°
2026-05-04 19:51 41.47406 -84.48487 29720 ft 403 kts 273°
2026-05-04 19:51 41.47701 -84.55960 29716 ft 403 kts 273°
2026-05-04 19:52 41.47991 -84.63422 29712 ft 403 kts 273°
2026-05-04 19:52 41.48274 -84.70849 29714 ft 403 kts 273°
2026-05-04 19:53 41.48555 -84.78324 29696 ft 403 kts 273°
2026-05-04 19:53 41.48831 -84.85806 29695 ft 403 kts 273°
2026-05-04 19:54 41.49102 -84.93279 29692 ft 403 kts 273°
2026-05-04 19:54 41.49368 -85.00761 29686 ft 403 kts 273°
2026-05-04 19:55 41.49627 -85.08191 29685 ft 404 kts 273°
2026-05-04 19:55 41.49884 -85.15684 29689 ft 404 kts 273°
2026-05-04 19:56 41.50136 -85.23181 29689 ft 404 kts 273°
2026-05-04 19:56 41.50384 -85.30672 29683 ft 404 kts 273°
2026-05-04 19:57 41.50626 -85.38180 29693 ft 405 kts 273°
2026-05-04 19:57 41.50862 -85.45633 29686 ft 405 kts 272°
2026-05-04 19:58 41.51095 -85.53139 29692 ft 404 kts 272°
2026-05-04 19:58 41.51323 -85.60637 29682 ft 404 kts 272°
2026-05-04 19:59 41.51546 -85.68136 29687 ft 404 kts 272°
2026-05-04 19:59 41.51764 -85.75633 29681 ft 404 kts 272°
2026-05-04 20:00 41.51977 -85.83121 29685 ft 403 kts 272°
2026-05-04 20:00 41.52183 -85.90551 29676 ft 403 kts 272°
2026-05-04 20:01 41.52387 -85.98025 29682 ft 403 kts 272°
2026-05-04 20:01 41.52579 -86.05516 29682 ft 403 kts 272°
2026-05-04 20:02 41.52719 -86.12942 29644 ft 402 kts 271°
2026-05-04 20:02 41.52845 -86.20405 29671 ft 402 kts 271°
2026-05-04 20:03 41.52970 -86.27887 29673 ft 402 kts 271°
2026-05-04 20:03 41.53093 -86.35344 29671 ft 402 kts 271°
2026-05-04 20:04 41.53213 -86.42808 29665 ft 402 kts 271°
2026-05-04 20:04 41.53327 -86.50222 29657 ft 402 kts 271°
2026-05-04 20:05 41.53437 -86.57673 29651 ft 401 kts 271°
2026-05-04 20:05 41.53543 -86.65132 29647 ft 401 kts 271°
2026-05-04 20:06 41.53643 -86.72578 29649 ft 401 kts 271°
2026-05-04 20:06 41.53739 -86.80016 29649 ft 401 kts 271°
2026-05-04 20:07 41.53830 -86.87467 29647 ft 401 kts 271°
2026-05-04 20:07 41.53916 -86.94927 29661 ft 402 kts 271°
2026-05-04 20:08 41.53997 -87.02340 29656 ft 403 kts 271°
2026-05-04 20:08 41.54073 -87.09827 29659 ft 403 kts 271°
2026-05-04 20:09 41.54145 -87.17318 29656 ft 403 kts 271°
2026-05-04 20:09 41.54213 -87.24810 29628 ft 404 kts 271°
2026-05-04 20:10 41.54275 -87.32316 29627 ft 404 kts 271°
2026-05-04 20:10 41.54332 -87.39763 29625 ft 404 kts 271°
2026-05-04 20:11 41.54385 -87.47266 29648 ft 404 kts 271°
2026-05-04 20:11 41.54432 -87.54763 29646 ft 403 kts 271°
2026-05-04 20:12 41.54475 -87.62263 29650 ft 403 kts 270°
2026-05-04 20:12 41.54513 -87.69751 29646 ft 403 kts 270°
2026-05-04 20:13 41.54546 -87.77232 29640 ft 403 kts 270°
2026-05-04 20:13 41.54574 -87.84670 29631 ft 403 kts 270°
2026-05-04 20:14 41.54598 -87.92149 29631 ft 403 kts 270°
2026-05-04 20:14 41.54616 -87.99625 29641 ft 402 kts 270°
2026-05-04 20:15 41.54630 -88.07089 29636 ft 402 kts 270°
2026-05-04 20:15 41.54639 -88.14555 29641 ft 401 kts 270°
2026-05-04 20:16 41.54643 -88.21961 29636 ft 401 kts 270°
2026-05-04 20:16 41.54644 -88.28135 29634 ft 400 kts 270°
2026-05-04 20:17 41.54583 -88.35573 29626 ft 400 kts 268°
2026-05-04 20:17 41.54294 -88.42982 29637 ft 399 kts 267°
2026-05-04 20:18 41.53971 -88.50332 29613 ft 398 kts 267°
2026-05-04 20:18 41.53681 -88.57259 29609 ft 398 kts 267°
2026-05-04 20:19 41.53439 -88.63216 29615 ft 398 kts 267°
2026-05-04 20:19 41.53145 -88.70543 29618 ft 398 kts 267°
2026-05-04 20:20 41.52845 -88.77922 29611 ft 398 kts 267°
2026-05-04 20:20 41.52541 -88.85294 29610 ft 398 kts 267°
2026-05-04 20:21 41.52232 -88.92669 29625 ft 398 kts 267°
2026-05-04 20:21 41.51759 -89.03744 29621 ft 398 kts 267°
2026-05-04 20:22 41.51438 -89.11122 29623 ft 398 kts 267°
2026-05-04 20:22 41.51112 -89.18504 29625 ft 398 kts 267°
2026-05-04 20:23 41.50784 -89.25830 29626 ft 398 kts 267°
2026-05-04 20:23 41.50449 -89.33206 29618 ft 398 kts 267°
2026-05-04 20:24 41.50108 -89.40594 29618 ft 398 kts 267°
2026-05-04 20:24 41.49764 -89.47959 29608 ft 398 kts 267°
2026-05-04 20:25 41.49415 -89.55323 29612 ft 397 kts 266°
2026-05-04 20:25 41.49065 -89.62632 29614 ft 397 kts 266°
2026-05-04 20:26 41.48707 -89.69981 29609 ft 397 kts 266°
2026-05-04 20:26 41.48345 -89.77331 29607 ft 397 kts 266°
2026-05-04 20:27 41.47978 -89.84674 29603 ft 397 kts 266°
2026-05-04 20:27 41.47607 -89.92016 29603 ft 397 kts 266°
2026-05-04 20:28 41.47230 -89.99368 29602 ft 396 kts 266°
2026-05-04 20:28 41.46850 -90.06698 29608 ft 396 kts 266°
2026-05-04 20:29 41.46465 -90.14034 29604 ft 396 kts 266°
2026-05-04 20:29 41.46077 -90.21331 29603 ft 396 kts 266°
2026-05-04 20:30 41.45683 -90.28657 29609 ft 396 kts 266°
2026-05-04 20:30 41.45284 -90.35985 29610 ft 396 kts 266°
2026-05-04 20:31 41.44881 -90.43305 29607 ft 396 kts 266°
2026-05-04 20:31 41.44473 -90.50634 29613 ft 396 kts 266°
2026-05-04 20:32 41.44064 -90.57906 29611 ft 395 kts 266°
2026-05-04 20:32 41.43647 -90.65219 29624 ft 395 kts 266°
2026-05-04 20:33 41.43226 -90.72521 29621 ft 395 kts 266°
2026-05-04 20:33 41.42801 -90.79820 29609 ft 395 kts 266°
2026-05-04 20:34 41.42371 -90.87115 29613 ft 394 kts 266°
2026-05-04 20:34 41.41940 -90.94358 29618 ft 394 kts 266°
2026-05-04 20:35 41.41502 -91.01633 29620 ft 393 kts 266°
2026-05-04 20:35 41.41060 -91.08902 29624 ft 393 kts 266°
2026-05-04 20:36 41.40615 -91.16153 29623 ft 393 kts 266°
2026-05-04 20:36 41.40164 -91.23406 29615 ft 392 kts 266°
2026-05-04 20:37 41.39710 -91.30645 29619 ft 392 kts 266°
2026-05-04 20:37 41.39255 -91.37830 29612 ft 391 kts 266°
2026-05-04 20:38 41.38793 -91.45050 29606 ft 391 kts 266°
2026-05-04 20:38 41.38329 -91.52227 29605 ft 390 kts 265°
2026-05-04 20:39 41.37857 -91.59472 29615 ft 390 kts 265°
2026-05-04 20:39 41.37385 -91.66633 29610 ft 390 kts 265°
2026-05-04 20:40 41.36906 -91.73826 29610 ft 390 kts 265°
2026-05-04 20:40 41.36423 -91.81018 29614 ft 390 kts 265°
2026-05-04 20:41 41.35936 -91.88214 29620 ft 391 kts 265°
2026-05-04 20:41 41.35441 -91.95450 29626 ft 392 kts 265°
2026-05-04 20:42 41.34942 -92.02666 29618 ft 394 kts 265°
2026-05-04 20:42 41.34437 -92.09924 29619 ft 394 kts 265°
2026-05-04 20:43 41.33926 -92.17179 29624 ft 393 kts 265°
2026-05-04 20:43 41.33414 -92.24394 29612 ft 391 kts 265°
2026-05-04 20:44 41.32900 -92.31570 29624 ft 388 kts 265°
2026-05-04 20:44 41.32389 -92.38649 29623 ft 385 kts 265°
2026-05-04 20:45 41.31872 -92.45741 29626 ft 384 kts 265°
2026-05-04 20:45 41.31353 -92.52809 29634 ft 384 kts 265°
2026-05-04 20:46 41.30830 -92.59875 29646 ft 384 kts 265°
2026-05-04 20:46 41.30303 -92.66921 29633 ft 385 kts 265°
2026-05-04 20:47 41.29768 -92.74028 29622 ft 387 kts 265°
2026-05-04 20:47 41.29226 -92.81161 29626 ft 388 kts 265°
2026-05-04 20:48 41.28678 -92.88316 29624 ft 390 kts 265°
2026-05-04 20:48 41.28123 -92.95496 29626 ft 391 kts 265°
2026-05-04 20:49 41.27563 -93.02688 29631 ft 391 kts 264°
2026-05-04 20:49 41.26998 -93.09882 29630 ft 391 kts 264°
2026-05-04 20:50 41.26433 -93.17021 29626 ft 391 kts 264°
2026-05-04 20:50 41.25861 -93.24197 29631 ft 390 kts 264°
2026-05-04 20:51 41.25284 -93.31363 29622 ft 389 kts 264°
2026-05-04 20:51 41.24705 -93.38513 29627 ft 388 kts 264°
2026-05-04 20:52 41.24123 -93.45640 29633 ft 387 kts 264°
2026-05-04 20:52 41.23540 -93.52713 29632 ft 386 kts 264°
2026-05-04 20:53 41.22952 -93.59811 29628 ft 386 kts 264°
2026-05-04 20:53 41.22360 -93.66897 29627 ft 386 kts 264°
2026-05-04 20:54 41.21763 -93.73977 29630 ft 385 kts 264°
2026-05-04 20:54 41.21164 -93.81053 29630 ft 385 kts 264°
2026-05-04 20:55 41.20559 -93.88123 29629 ft 385 kts 264°
2026-05-04 20:55 41.19951 -93.95195 29641 ft 385 kts 264°
2026-05-04 20:56 41.19342 -94.02211 29645 ft 385 kts 264°
2026-05-04 20:56 41.18725 -94.09285 29646 ft 386 kts 264°
2026-05-04 20:57 41.18103 -94.16358 29651 ft 386 kts 264°
2026-05-04 20:57 41.17477 -94.23423 29652 ft 385 kts 264°
2026-05-04 20:58 41.16846 -94.30493 29654 ft 385 kts 264°
2026-05-04 20:58 41.16212 -94.37552 29658 ft 385 kts 264°
2026-05-04 20:59 41.15573 -94.44614 29658 ft 385 kts 264°
2026-05-04 20:59 41.14931 -94.51656 29657 ft 385 kts 264°
2026-05-04 21:00 41.14285 -94.58704 29651 ft 384 kts 264°
2026-05-04 21:00 41.13636 -94.65730 29646 ft 384 kts 264°
2026-05-04 21:01 41.12983 -94.72758 29642 ft 383 kts 264°
2026-05-04 21:01 41.12327 -94.79769 29642 ft 383 kts 264°
2026-05-04 21:02 41.11667 -94.86771 29645 ft 382 kts 264°
2026-05-04 21:02 41.11009 -94.93708 29648 ft 381 kts 264°
2026-05-04 21:03 41.10342 -95.00689 29652 ft 381 kts 264°
2026-05-04 21:03 41.09673 -95.07655 29655 ft 380 kts 264°
2026-05-04 21:04 41.09114 -95.13433 29658 ft 380 kts 264°
2026-05-04 21:04 41.08438 -95.20387 29667 ft 380 kts 264°
2026-05-04 21:05 41.07759 -95.27328 29663 ft 379 kts 264°
2026-05-04 21:05 41.07077 -95.34254 29665 ft 379 kts 264°
2026-05-04 21:06 41.06397 -95.41126 29649 ft 378 kts 264°
2026-05-04 21:06 41.05707 -95.48045 29652 ft 378 kts 264°
2026-05-04 21:07 41.05014 -95.54945 29655 ft 377 kts 264°
2026-05-04 21:07 41.04318 -95.61840 29669 ft 377 kts 264°
2026-05-04 21:08 41.03620 -95.68719 29665 ft 376 kts 264°
2026-05-04 21:08 41.02918 -95.75590 29682 ft 376 kts 264°
2026-05-04 21:09 41.02217 -95.82407 29689 ft 376 kts 264°
2026-05-04 21:09 41.01508 -95.89265 29696 ft 375 kts 264°
2026-05-04 21:10 41.00797 -95.96107 29689 ft 375 kts 264°
2026-05-04 21:10 41.00082 -96.02939 29694 ft 375 kts 264°
2026-05-04 21:11 40.99363 -96.09775 29691 ft 374 kts 264°
2026-05-04 21:11 40.98640 -96.16604 29682 ft 374 kts 264°
2026-05-04 21:12 40.97914 -96.23423 29692 ft 374 kts 264°
2026-05-04 21:12 40.97188 -96.30208 29686 ft 374 kts 264°
2026-05-04 21:13 40.96454 -96.37024 29675 ft 374 kts 264°
2026-05-04 21:13 40.95714 -96.43857 29681 ft 375 kts 264°
2026-05-04 21:14 40.94971 -96.50680 29698 ft 375 kts 263°
2026-05-04 21:14 40.94223 -96.57514 29705 ft 375 kts 263°
2026-05-04 21:15 40.93472 -96.64340 29704 ft 375 kts 263°
2026-05-04 21:15 40.92717 -96.71159 29714 ft 375 kts 263°
2026-05-04 21:16 40.91973 -96.77990 29718 ft 375 kts 264°
2026-05-04 21:16 40.91272 -96.84778 29720 ft 375 kts 264°
2026-05-04 21:17 40.90569 -96.91601 29713 ft 375 kts 264°
2026-05-04 21:17 40.89858 -96.98431 29709 ft 375 kts 264°
2026-05-04 21:18 40.89141 -97.05250 29709 ft 374 kts 264°
2026-05-04 21:18 40.88419 -97.12079 29705 ft 375 kts 264°
2026-05-04 21:19 40.87692 -97.18897 29698 ft 374 kts 264°
2026-05-04 21:19 40.86963 -97.25707 29703 ft 374 kts 264°
2026-05-04 21:20 40.86234 -97.32477 29709 ft 374 kts 264°
2026-05-04 21:20 40.85499 -97.39268 29716 ft 373 kts 264°
2026-05-04 21:21 40.84759 -97.46057 29727 ft 373 kts 264°
2026-05-04 21:21 40.84018 -97.52825 29730 ft 372 kts 264°
2026-05-04 21:22 40.83273 -97.59590 29730 ft 372 kts 264°
2026-05-04 21:22 40.82524 -97.66353 29729 ft 371 kts 263°
2026-05-04 21:23 40.81777 -97.73060 29726 ft 371 kts 263°
2026-05-04 21:23 40.81021 -97.79813 29720 ft 371 kts 263°
2026-05-04 21:24 40.80262 -97.86560 29741 ft 372 kts 263°
2026-05-04 21:24 40.79498 -97.93308 29747 ft 371 kts 263°
2026-05-04 21:25 40.78731 -98.00048 29742 ft 371 kts 263°
2026-05-04 21:25 40.77960 -98.06790 29747 ft 371 kts 263°
2026-05-04 21:26 40.77189 -98.13490 29752 ft 371 kts 263°
2026-05-04 21:26 40.76410 -98.20233 29744 ft 372 kts 263°
2026-05-04 21:27 40.75627 -98.26970 29744 ft 372 kts 263°
2026-05-04 21:27 40.74840 -98.33710 29748 ft 372 kts 263°
2026-05-04 21:28 40.74047 -98.40459 29751 ft 372 kts 263°
2026-05-04 21:28 40.73251 -98.47203 29749 ft 372 kts 263°
2026-05-04 21:29 40.72456 -98.53900 29749 ft 372 kts 263°
2026-05-04 21:29 40.71653 -98.60638 29744 ft 372 kts 263°
2026-05-04 21:30 40.70845 -98.67377 29745 ft 372 kts 263°
2026-05-04 21:30 40.70034 -98.74114 29753 ft 372 kts 263°
2026-05-04 21:31 40.68809 -98.84213 29768 ft 372 kts 263°
2026-05-04 21:32 40.67987 -98.90950 29781 ft 372 kts 263°
2026-05-04 21:32 40.67166 -98.97643 29775 ft 372 kts 263°
2026-05-04 21:33 40.66336 -99.04385 29779 ft 373 kts 263°
2026-05-04 21:33 40.65500 -99.11135 29774 ft 373 kts 262°
2026-05-04 21:34 40.64660 -99.17882 29768 ft 373 kts 262°
2026-05-04 21:34 40.63816 -99.24632 29761 ft 373 kts 262°
2026-05-04 21:35 40.62968 -99.31378 29740 ft 373 kts 262°
2026-05-04 21:35 40.62120 -99.38091 29741 ft 374 kts 262°
2026-05-04 21:36 40.61264 -99.44841 29744 ft 374 kts 262°
2026-05-04 21:36 40.60403 -99.51590 29738 ft 374 kts 262°
2026-05-04 21:37 40.59539 -99.58335 29743 ft 374 kts 262°
2026-05-04 21:37 40.58674 -99.65055 29761 ft 374 kts 262°
2026-05-04 21:38 40.57798 -99.71823 29759 ft 375 kts 262°
2026-05-04 21:38 40.56918 -99.78590 29762 ft 375 kts 262°
2026-05-04 21:39 40.56034 -99.85362 29762 ft 376 kts 262°
2026-05-04 21:39 40.55144 -99.92148 29753 ft 377 kts 262°
2026-05-04 21:40 40.54249 -99.98935 29737 ft 377 kts 262°
2026-05-04 21:40 40.53354 -100.05694 29735 ft 378 kts 261°
2026-05-04 21:41 40.52448 -100.12501 29737 ft 378 kts 261°
2026-05-04 21:41 40.51536 -100.19317 29731 ft 378 kts 261°
2026-05-04 21:42 40.50621 -100.26130 29736 ft 379 kts 261°
2026-05-04 21:42 40.49700 -100.32953 29738 ft 379 kts 261°
2026-05-04 21:43 40.48782 -100.39726 29734 ft 379 kts 261°
2026-05-04 21:43 40.47854 -100.46537 29737 ft 378 kts 261°
2026-05-04 21:44 40.46923 -100.53348 29744 ft 378 kts 261°
2026-05-04 21:44 40.45988 -100.60151 29739 ft 378 kts 261°
2026-05-04 21:45 40.45049 -100.66950 29743 ft 378 kts 261°
2026-05-04 21:45 40.44106 -100.73746 29733 ft 378 kts 261°
2026-05-04 21:46 40.43164 -100.80512 29743 ft 379 kts 261°
2026-05-04 21:46 40.42211 -100.87320 29740 ft 379 kts 261°
2026-05-04 21:47 40.41253 -100.94139 29738 ft 380 kts 261°
2026-05-04 21:47 40.40288 -101.00967 29735 ft 381 kts 261°
2026-05-04 21:48 40.39316 -101.07823 29738 ft 382 kts 261°
2026-05-04 21:48 40.38346 -101.14633 29741 ft 382 kts 261°
2026-05-04 21:49 40.37363 -101.21504 29739 ft 384 kts 261°
2026-05-04 21:49 40.36374 -101.28385 29751 ft 384 kts 261°
2026-05-04 21:50 40.35380 -101.35273 29753 ft 385 kts 261°
2026-05-04 21:50 40.34548 -101.41013 29753 ft 385 kts 261°
2026-05-04 21:51 40.33543 -101.47921 29764 ft 386 kts 261°
2026-05-04 21:51 40.32533 -101.54831 29763 ft 386 kts 261°
2026-05-04 21:52 40.31516 -101.61757 29758 ft 387 kts 261°
2026-05-04 21:52 40.30501 -101.68643 29759 ft 387 kts 261°
2026-05-04 21:53 40.29473 -101.75579 29747 ft 388 kts 261°
2026-05-04 21:53 40.28442 -101.82516 29745 ft 388 kts 261°
2026-05-04 21:54 40.27405 -101.89456 29725 ft 389 kts 260°
2026-05-04 21:54 40.26363 -101.96405 29722 ft 389 kts 260°
2026-05-04 21:55 40.25316 -102.03352 29717 ft 389 kts 260°
2026-05-04 21:55 40.24264 -102.10307 29726 ft 390 kts 260°
2026-05-04 21:56 40.23206 -102.17274 29722 ft 390 kts 260°
2026-05-04 21:56 40.22149 -102.24200 29714 ft 391 kts 260°
2026-05-04 21:57 40.21079 -102.31183 29715 ft 391 kts 260°
2026-05-04 21:57 40.20006 -102.38156 29714 ft 390 kts 260°
2026-05-04 21:58 40.18931 -102.45107 29709 ft 389 kts 260°
2026-05-04 21:58 40.17856 -102.52036 29708 ft 388 kts 260°
2026-05-04 21:59 40.16788 -102.58891 29706 ft 386 kts 260°
2026-05-04 21:59 40.15707 -102.65798 29703 ft 384 kts 260°
2026-05-04 22:00 40.14633 -102.72637 29703 ft 382 kts 260°
2026-05-04 22:00 40.13569 -102.79384 29712 ft 380 kts 261°
2026-05-04 22:01 40.12501 -102.86132 29730 ft 378 kts 261°
2026-05-04 22:01 40.11432 -102.92853 29745 ft 377 kts 261°
2026-05-04 22:02 40.10370 -102.99511 29764 ft 375 kts 260°
2026-05-04 22:02 40.09304 -103.06173 29780 ft 374 kts 260°
2026-05-04 22:03 40.08344 -103.12822 29791 ft 371 kts 267°
2026-05-04 22:03 40.08153 -103.19549 29795 ft 370 kts 270°
2026-05-04 22:04 40.08043 -103.26235 29801 ft 370 kts 269°
2026-05-04 22:04 40.07888 -103.32991 29794 ft 373 kts 269°
2026-05-04 22:05 40.07704 -103.39776 29780 ft 374 kts 269°
2026-05-04 22:05 40.07508 -103.46583 29757 ft 376 kts 269°
2026-05-04 22:06 40.07308 -103.53406 29737 ft 376 kts 269°
2026-05-04 22:06 40.07106 -103.60240 29720 ft 376 kts 269°
2026-05-04 22:07 40.06897 -103.67056 29730 ft 375 kts 268°
2026-05-04 22:07 40.06666 -103.73845 29741 ft 374 kts 268°
2026-05-04 22:08 40.06427 -103.80574 29732 ft 373 kts 268°
2026-05-04 22:08 40.06185 -103.87341 29734 ft 373 kts 268°
2026-05-04 22:09 40.05940 -103.94097 29723 ft 372 kts 268°
2026-05-04 22:09 40.05693 -104.00846 29718 ft 372 kts 268°
2026-05-04 22:10 40.05442 -104.07584 29698 ft 372 kts 268°
2026-05-04 22:10 40.05187 -104.14319 29693 ft 372 kts 268°
2026-05-04 22:11 40.04929 -104.21024 29702 ft 372 kts 268°
2026-05-04 22:11 40.04667 -104.27741 29711 ft 373 kts 268°
2026-05-04 22:12 40.04400 -104.34495 29745 ft 373 kts 268°
2026-05-04 22:12 40.04128 -104.41274 29753 ft 374 kts 268°
2026-05-04 22:13 40.03851 -104.48070 29788 ft 375 kts 268°
2026-05-04 22:13 40.03570 -104.54892 29806 ft 377 kts 267°
2026-05-04 22:14 40.03348 -104.61734 29809 ft 378 kts 274°
2026-05-04 22:14 40.04393 -104.68410 29826 ft 379 kts 282°
2026-05-04 22:15 40.05670 -104.75099 29815 ft 380 kts 282°
2026-05-04 22:15 40.06916 -104.81808 29822 ft 381 kts 282°
2026-05-04 22:16 40.08141 -104.88559 29843 ft 382 kts 282°
2026-05-04 22:16 40.09349 -104.95280 29856 ft 383 kts 282°
2026-05-04 22:17 40.10565 -105.02081 29853 ft 384 kts 282°
2026-05-04 22:17 40.11769 -105.08827 29861 ft 376 kts 282°
2026-05-04 22:17 40.12350 -105.12090 29860 ft 362 kts 282°
2026-05-04 22:18 40.12909 -105.15234 29868 ft 352 kts 282°
2026-05-04 22:18 40.13908 -105.21493 29561 ft 356 kts 272°
2026-05-04 22:18 40.13790 -105.24691 29225 ft 349 kts 266°
2026-05-04 22:19 40.13605 -105.27861 28756 ft 346 kts 266°
2026-05-04 22:19 40.13430 -105.30981 28293 ft 343 kts 266°
2026-05-04 22:19 40.13263 -105.34068 27871 ft 339 kts 266°
2026-05-04 22:19 40.13103 -105.37126 27450 ft 337 kts 266°
2026-05-04 22:20 40.12945 -105.40180 27023 ft 335 kts 266°
2026-05-04 22:20 40.12791 -105.43168 26592 ft 333 kts 266°
2026-05-04 22:20 40.12636 -105.46176 26173 ft 331 kts 266°
2026-05-04 22:20 40.12481 -105.49163 25771 ft 329 kts 266°
2026-05-04 22:21 40.12327 -105.52135 25383 ft 327 kts 266°
2026-05-04 22:21 40.12174 -105.55091 24978 ft 325 kts 266°
2026-05-04 22:21 40.12020 -105.58022 24634 ft 323 kts 266°
2026-05-04 22:21 40.11866 -105.60940 24255 ft 321 kts 266°
2026-05-04 22:22 40.11713 -105.63849 23875 ft 320 kts 266°
2026-05-04 22:22 40.11568 -105.66770 23446 ft 323 kts 266°
2026-05-04 22:22 40.11424 -105.69713 22995 ft 325 kts 266°
2026-05-04 22:22 40.11280 -105.72661 22558 ft 325 kts 266°
2026-05-04 22:23 40.11136 -105.75570 22178 ft 324 kts 266°
2026-05-04 22:23 40.10990 -105.78518 21764 ft 325 kts 266°
2026-05-04 22:23 40.10843 -105.81458 21384 ft 324 kts 266°
2026-05-04 22:23 40.10695 -105.84413 20751 ft 329 kts 266°
2026-05-04 22:24 40.10546 -105.87360 20302 ft 322 kts 266°
2026-05-04 22:24 40.10400 -105.90244 19906 ft 314 kts 266°
2026-05-04 22:24 40.10256 -105.93052 19520 ft 306 kts 266°
2026-05-04 22:24 40.10116 -105.95795 19151 ft 299 kts 266°
2026-05-04 22:25 40.09978 -105.98470 18794 ft 291 kts 266°
2026-05-04 22:25 40.09843 -106.01086 18449 ft 285 kts 266°
2026-05-04 22:25 40.09710 -106.03658 18075 ft 281 kts 266°
2026-05-04 22:25 40.09578 -106.06195 17686 ft 279 kts 266°
2026-05-04 22:26 40.09444 -106.08741 17357 ft 284 kts 266°
2026-05-04 22:26 40.09308 -106.11333 17001 ft 295 kts 266°
2026-05-04 22:26 40.09165 -106.14039 16618 ft 300 kts 266°
2026-05-04 22:26 40.09021 -106.16754 16229 ft 299 kts 266°
2026-05-04 22:27 40.08725 -106.19418 15942 ft 293 kts 253°
2026-05-04 22:27 40.08027 -106.21872 15847 ft 284 kts 249°
2026-05-04 22:27 40.07290 -106.24245 15726 ft 281 kts 249°
2026-05-04 22:27 40.06545 -106.26643 15640 ft 292 kts 249°
2026-05-04 22:28 40.05774 -106.29149 15528 ft 301 kts 249°
2026-05-04 22:28 40.04994 -106.31707 15398 ft 301 kts 249°
2026-05-04 22:28 40.04237 -106.34211 15251 ft 290 kts 250°
2026-05-04 22:28 40.03519 -106.36590 15138 ft 273 kts 249°
2026-05-04 22:29 40.02839 -106.38843 15037 ft 258 kts 249°
2026-05-04 22:29 40.02198 -106.40965 14924 ft 245 kts 249°
2026-05-04 22:29 40.01481 -106.42885 14831 ft 237 kts 231°
2026-05-04 22:29 40.00254 -106.44292 14824 ft 240 kts 212°
2026-05-04 22:30 39.98626 -106.45072 14754 ft 256 kts 200°
2026-05-04 22:30 39.96888 -106.45743 14631 ft 263 kts 201°
2026-05-04 22:30 39.95142 -106.46440 14539 ft 261 kts 201°
2026-05-04 22:30 39.93415 -106.47150 14441 ft 259 kts 201°
2026-05-04 22:31 39.91709 -106.47860 14338 ft 256 kts 202°
2026-05-04 22:31 39.90022 -106.48567 14237 ft 253 kts 202°
2026-05-04 22:31 39.88355 -106.49268 14155 ft 250 kts 202°
2026-05-04 22:31 39.86703 -106.49963 14072 ft 248 kts 202°
2026-05-04 22:32 39.85061 -106.50653 13970 ft 248 kts 202°
2026-05-04 22:32 39.83411 -106.51347 13896 ft 251 kts 202°
2026-05-04 22:32 39.81750 -106.52048 13872 ft 258 kts 202°
2026-05-04 22:32 39.80023 -106.52776 13773 ft 261 kts 202°
2026-05-04 22:33 39.78292 -106.53502 13619 ft 262 kts 202°
2026-05-04 22:33 39.76616 -106.54203 13460 ft 260 kts 202°
2026-05-04 22:34 39.75008 -106.54874 13294 ft 257 kts 202°
2026-05-04 22:34 39.73318 -106.55580 13124 ft 252 kts 202°
2026-05-04 22:34 39.71661 -106.56274 13000 ft 248 kts 202°
2026-05-04 22:34 39.70141 -106.57213 12674 ft 244 kts 229°
2026-05-04 22:35 39.69311 -106.59029 12451 ft 234 kts 252°
2026-05-04 22:35 39.68822 -106.61070 12064 ft 237 kts 256°
2026-05-04 22:35 39.68440 -106.63159 11685 ft 240 kts 259°
2026-05-04 22:35 39.68114 -106.65269 11286 ft 234 kts 259°
2026-05-04 22:36 39.67809 -106.67310 10907 ft 225 kts 260°
2026-05-04 22:36 39.67516 -106.69263 10557 ft 214 kts 259°
2026-05-04 22:36 39.67238 -106.71111 10229 ft 204 kts 259°
2026-05-04 22:36 39.66976 -106.72869 9951 ft 193 kts 260°
2026-05-04 22:37 39.66719 -106.74559 9625 ft 187 kts 259°
2026-05-04 22:37 39.66471 -106.76209 9301 ft 185 kts 260°
2026-05-04 22:37 39.66312 -106.77283 9182 ft 178 kts 259°
2026-05-04 22:37 39.66011 -106.78832 8972 ft 179 kts 254°
2026-05-04 22:38 39.65550 -106.80869 8617 ft 175 kts 257°
2026-05-04 22:38 39.65288 -106.82412 8267 ft 175 kts 260°
2026-05-04 22:38 39.65154 -106.83467 8016 ft 176 kts 263°
2026-05-04 22:38 39.64997 -106.85060 7639 ft 177 kts 264°
2026-05-04 22:39 39.64849 -106.86580 7314 ft 168 kts 262°
2026-05-04 22:39 39.64663 -106.88094 7011 ft 175 kts 262°
2026-05-04 22:39 39.64489 -106.89672 6671 ft 178 kts 262°
2026-05-04 22:39 39.64327 -106.91187 6501 ft 168 kts 259°
2026-05-04 22:40 39.64180 -106.92490 6446 ft 124 kts 261°
2026-05-04 22:40 39.64108 -106.93134 6436 ft 35 kts 262°